ARIANE 5 DEB (SYLDA), 26722

Orbit data source: Space-Track

ARIANE 5 DEB (SYLDA), 26722 is space debris in HEO originally from a launch on Thu, 08 Mar 2001 UTC launched from the French Guiana (FRGUI). Debris objects in space refer to the collection of defunct objects orbiting the Earth. Examples of debris include non-operational satellites, rocket bodies, and fragments generated from explosions, collisions, or faulty payload assembly.

Loading next visibility...
Identifier
26722, 2001-011D
Orbit
HEO
Country
Flag of FRFR
Related business
Manufacturer
Astrium
Mission
Spacecraft
Bus & Motor
SYLDA 5, Unknown motor
Mass
440 kg wet, 440 kg dry
Launch date (UTC)
2001-03-08 (25 years ago)
Launch vehicle
Unknown
Launch site
French Guiana (FRGUI)
Object type
Payload
Rocket body
Debris
Shape & HBR
Cyl, 2.5 m
Radar Cross Section
25.270 m², Large (>1 m²)

Expand to show TLE details & history
Last TLE update: 21 hours ago

TLE from 21 hours ago
0 ARIANE 5 DEB (SYLDA)
1 26722U 01011D   25257.47238443 -.00000209  00000-0  71786-3 0  9992
2 26722   2.1395  37.7481 7061307 329.6868   3.8174  2.22929009199767
Epoch: 2025-09-14T11:20Z
TLE epoch observation values (Epoch: 2025-09-14T11:20:14.014Z)
Latitude
-0.00002°
Longitude
-125.5284°
Altitude
1,328.006 km
Speed
9.345 km/s
True Right ascension
02h 32m 53s
True Declination
0° 00' 00"
Sunlit
Object was in full shadow at epoch
Visualization orbit readout
Latitude
Unknown
Longitude
Unknown
Altitude
Unknown
Speed
Unknown
Apparent Right ascension
Unknown
Apparent Declination
Unknown
Sunlit
N/A
Visualization observer readout
Local Sidereal Time
00:55:38
Azimuth
Unknown
Elevation
Unknown
Doppler factor
Unknown
Orbital elements
Apogee altitude
35,861.914 km
Perigee altitude
897.422 km
Semi-major axis
24,757.805 km
Eccentricity
0.70613
Inclination
2.1395°
RAAN
37.7481°
Arg. of periapsis
329.6868°
True anomaly
30.1083°
Mean anomaly
3.8174°
Eccentric anomaly
12.73858°
Mean motion
0.55715 °/min
Orbital period
646.14 mins
BSTAR
0.00071786
Loading maneuver chart data...
Computing Atmospheric mass density...
Loading historical data...
Loading historical data...
Loading historical data...
Loading historical data...
Loading historical data...
Loading historical data...
Loading historical data...
Other satellites on launch #11 in the year 2001 (2001-03-08 UTC)

Documentation

Showing up to 5 results
|